Location: Dillon
(41.1766°N, 107.0923°W)
Time: 10:34:28
(UTC+00:00)

AO-92 - Pass Details

Date: 07 July 2022
Orbit: 469 x 481 km, 97.4° (Epoch: 10 August)

Event Time Altitude Azimuth Distance (km) Brightness Sun altitude
Exits shadow 06:02:45 21° 269° (W) 1,146 ? -24.2°
Drops below altitude 10° 06:05:22 10° 316° (NW) 1,666 ? -24.3°
Sets 06:07:50 0° 333° (NNW) 2,553 ? -24.5°
